Location: Béaulencourt
(50.0796°N, 2.8795°E)
Time: 03:09:28
(UTC+00:00)

ISS - Visible Passes

Search period start: 09 March 2026 00:00
Search period end: 19 March 2026 00:00
Orbit: 416 x 427 km, 51.6° (Epoch: 8 March)

Date Brightness Start Highest point End Pass type
(mag) Time Alt. Az. Time Alt. Az. Time Alt. Az.
11 Mar -1.5 18:45:07 10° SSE 18:46:10 11° SE 18:46:23 11° SE visible
11 Mar -0.9 20:19:05 10° SW 20:19:25 12° SW 20:19:25 12° SW visible
12 Mar -2.8 19:32:15 10° SW 19:34:53 33° SSE 19:34:53 33° SSE visible
13 Mar -2.4 18:45:34 10° SSW 18:48:24 24° SE 18:50:11 16° E visible
13 Mar -1.8 20:21:32 10° WSW 20:23:12 27° WSW 20:23:12 27° WSW visible
14 Mar -3.8 19:34:26 10° WSW 19:37:49 67° SSE 19:38:20 56° ESE visible
14 Mar -0.3 21:11:20 10° W 21:11:20 10° W 21:11:20 10° W visible
15 Mar -3.4 18:47:25 10° SW 18:50:43 49° SSE 18:53:21 15° E visible
15 Mar -2.3 20:24:08 10° W 20:26:21 37° W 20:26:21 37° W visible
16 Mar -3.7 19:36:54 10° W 19:40:19 78° NNW 19:41:14 45° ENE visible
16 Mar -0.4 21:13:55 10° WNW 21:14:14 12° WNW 21:14:14 12° WNW visible
17 Mar -3.8 18:49:41 10° WSW 18:53:06 87° SSE 18:56:03 13° ENE visible
17 Mar -2.4 20:26:41 10° W 20:29:02 40° WNW 20:29:02 40° WNW visible
18 Mar -3.5 19:39:25 10° W 19:42:48 65° N 19:43:46 41° ENE visible
18 Mar -0.5 21:16:21 10° WNW 21:16:45 13° WNW 21:16:45 13° WNW visible
